Weslaco, TX

1:30 AM CDT on May 27, 2018 (GMT -0500)
Weslaco

Weather History for KT65 - November, 2012

Change the Weather History Date:

Wednesday, November 7, 2012

  Actual Average (KMFE) Record (KMFE)
Temperature  
Mean Temperature 74 °F -  
Max Temperature 89 °F 78 °F 96 °F (1947)
Min Temperature 60 °F 59 °F 47 °F (2002)
Cooling Degree Days 10    
Growing Degree Days 24 (Base 50)    
Moisture  
Dew Point 53 °F    
Average Humidity 48    
Maximum Humidity 82    
Minimum Humidity 21    
Precipitation  
Precipitation 0.00 in - - ()
Sea Level Pressure  
Sea Level Pressure 30.10 in    
Wind  
Wind Speed 4 mph (SE)    
Max Wind Speed 12 mph    
Max Gust Speed 20 mph    
Visibility 10 miles    
Events      
Averages and records for this station are not official NWS values.
T = Trace of Precipitation, MM = Missing Value Source: NWS Daily Summary

Daily Weather History Graph

Daily Weather History Graph

Search for Another Location

Airport or City:

Astronomy

Nov. 07, 2012 Rise Set
Actual Time 6:45 AM CST 5:45 PM CST
Civil Twilight 6:21 AM CST 6:09 PM CST
Nautical Twilight 5:53 AM CST 6:37 PM CST
Astronomical Twilight 5:26 AM CST 7:04 PM CST
Moon 12:19 AM CST (11/7) 1:20 PM CST (11/7)
Length of Visible Light 11h 48m
Length of Day
11h 00m
Last Quarter, 43% of the Moon is Illuminated
Nov 7
Last Quarter
Nov 13
New
Nov 20
First Quarter
Nov 28
Full
Dec 6
Last Quarter

Hourly Weather History & Observations

Time (CST) Temp. Heat Index Dew Point Humidity Pressure Visibility Wind Dir Wind Speed Gust Speed Precip Events Conditions
12:15 AM 64.4 °F - 55.4 °F 73% 30.12 in 10.0 mi Calm Calm - N/A   Clear
12:35 AM 66.2 °F - 55.4 °F 68% 30.12 in 10.0 mi Calm Calm - N/A   Clear
12:55 AM 64.4 °F - 55.4 °F 73% 30.12 in 10.0 mi Calm Calm - N/A   Clear
1:15 AM 62.6 °F - 55.4 °F 77% 30.12 in 10.0 mi Calm Calm - N/A   Clear
1:35 AM 62.6 °F - 55.4 °F 77% 30.12 in 10.0 mi Calm Calm - N/A   Clear
1:55 AM 62.6 °F - 55.4 °F 77% 30.12 in 10.0 mi Calm Calm - N/A   Clear
2:15 AM 60.8 °F - 55.4 °F 82% 30.12 in 10.0 mi Calm Calm - N/A   Clear
7:15 AM 60.8 °F - 55.4 °F 82% 30.14 in 10.0 mi Calm Calm - N/A   Clear
7:35 AM 62.6 °F - 57.2 °F 82% 30.15 in 10.0 mi Calm Calm - N/A   Clear
7:55 AM 66.2 °F - 59.0 °F 78% 30.15 in 10.0 mi Calm Calm - N/A   Clear
8:15 AM 69.8 °F - 57.2 °F 64% 30.16 in 10.0 mi Calm Calm - N/A   Clear
8:35 AM 73.4 °F - 57.2 °F 57% 30.16 in 10.0 mi Calm Calm - N/A   Clear
8:55 AM 77.0 °F - 59.0 °F 54% 30.17 in 10.0 mi ESE 4.6 mph - N/A   Clear
9:15 AM 78.8 °F - 57.2 °F 47% 30.17 in 7.0 mi SE 5.8 mph - N/A   Clear
9:35 AM 80.6 °F 80.8 °F 57.2 °F 45% 30.17 in 7.0 mi SSE 8.1 mph - N/A   Clear
9:55 AM 80.6 °F 81.1 °F 59.0 °F 48% 30.17 in 10.0 mi SSE 6.9 mph - N/A   Clear
10:15 AM 80.6 °F 81.1 °F 59.0 °F 48% 30.17 in 10.0 mi SSE 8.1 mph - N/A   Clear
10:35 AM 82.4 °F 82.5 °F 59.0 °F 45% 30.16 in 10.0 mi South 6.9 mph - N/A   Clear
10:55 AM 82.4 °F 81.7 °F 55.4 °F 39% 30.16 in 10.0 mi South 8.1 mph - N/A   Clear
11:15 AM 84.2 °F 83.0 °F 55.4 °F 37% 30.15 in 10.0 mi South 6.9 mph - N/A   Clear
11:35 AM 86.0 °F 84.2 °F 53.6 °F 33% 30.14 in 10.0 mi South 8.1 mph - N/A   Clear
11:55 AM 86.0 °F - 50.0 °F 29% 30.13 in 10.0 mi SSE 8.1 mph - N/A   Clear
12:15 PM 86.0 °F - 46.4 °F 25% 30.12 in 10.0 mi SSE 8.1 mph - N/A   Unknown
12:35 PM 86.0 °F - 50.0 °F 29% 30.10 in 10.0 mi South 8.1 mph - N/A   Unknown
12:55 PM 87.8 °F - 46.4 °F 24% 30.09 in 10.0 mi South 8.1 mph - N/A   Unknown
1:15 PM 87.8 °F - 48.2 °F 25% 30.08 in 10.0 mi SSW 4.6 mph - N/A   Unknown
1:35 PM 87.8 °F - 46.4 °F 24% 30.07 in 10.0 mi SSE 10.4 mph - N/A   Unknown
1:55 PM 87.8 °F - 44.6 °F 22% 30.06 in 10.0 mi SSE 6.9 mph - N/A   Unknown
2:15 PM 87.8 °F - 44.6 °F 22% 30.05 in 10.0 mi SE 4.6 mph - N/A   Unknown
2:35 PM 87.8 °F - 44.6 °F 22% 30.05 in 10.0 mi South 8.1 mph - N/A   Unknown
2:55 PM 89.6 °F - 44.6 °F 21% 30.04 in 10.0 mi South 5.8 mph - N/A   Unknown
3:15 PM 87.8 °F - 44.6 °F 22% 30.04 in 10.0 mi South 5.8 mph - N/A   Unknown
3:35 PM 87.8 °F - 44.6 °F 22% 30.03 in 10.0 mi SE 8.1 mph - N/A   Unknown
3:55 PM 87.8 °F - 44.6 °F 22% 30.03 in 10.0 mi ENE 8.1 mph - N/A   Unknown
4:15 PM 87.8 °F - 44.6 °F 22% 30.04 in 10.0 mi ESE 9.2 mph - N/A   Unknown
4:35 PM 86.0 °F - 44.6 °F 23% 30.04 in 10.0 mi East 4.6 mph - N/A   Unknown
4:55 PM 86.0 °F - 46.4 °F 25% 30.04 in 10.0 mi ESE 6.9 mph - N/A   Unknown
5:15 PM 82.4 °F - 50.0 °F 32% 30.04 in 10.0 mi East 11.5 mph 19.6 mph N/A   Unknown
5:35 PM 80.6 °F - 50.0 °F 34% 30.05 in 10.0 mi ESE 10.4 mph 16.1 mph N/A   Unknown
5:55 PM 78.8 °F - 50.0 °F 36% 30.05 in 10.0 mi ESE 8.1 mph - N/A   Unknown
6:15 PM 78.8 °F - 50.0 °F 36% 30.06 in 10.0 mi ESE 8.1 mph - N/A   Unknown
6:35 PM 77.0 °F - 50.0 °F 39% 30.06 in 10.0 mi ESE 6.9 mph - N/A   Unknown
6:55 PM 77.0 °F - 51.8 °F 41% 30.07 in 10.0 mi ESE 5.8 mph - N/A   Unknown
7:15 PM 75.2 °F - 51.8 °F 44% 30.08 in 10.0 mi SE 5.8 mph - N/A   Unknown
7:35 PM 73.4 °F - 51.8 °F 47% 30.09 in 10.0 mi SE 8.1 mph - N/A   Unknown
7:55 PM 73.4 °F - 53.6 °F 50% 30.09 in 10.0 mi SE 6.9 mph - N/A   Unknown
8:15 PM 71.6 °F - 55.4 °F 57% 30.09 in 10.0 mi SE 6.9 mph - N/A   Unknown
8:35 PM 71.6 °F - 55.4 °F 57% 30.10 in 10.0 mi SE 5.8 mph - N/A   Unknown
8:55 PM 69.8 °F - 55.4 °F 60% 30.11 in 10.0 mi SE 4.6 mph - N/A   Unknown
9:15 PM 69.8 °F - 55.4 °F 60% 30.11 in 10.0 mi SE 4.6 mph - N/A   Unknown
9:35 PM 69.8 °F - 55.4 °F 60% 30.12 in 10.0 mi SE 4.6 mph - N/A   Unknown
9:55 PM 68.0 °F - 55.4 °F 64% 30.12 in 10.0 mi SSE 3.5 mph - N/A   Unknown
10:15 PM 68.0 °F - 55.4 °F 64% 30.12 in 10.0 mi SSE 4.6 mph - N/A   Unknown
10:35 PM 64.4 °F - 55.4 °F 73% 30.12 in 10.0 mi SSE 4.6 mph - N/A   Unknown
10:55 PM 66.2 °F - 55.4 °F 68% 30.12 in 10.0 mi SSE 5.8 mph - N/A   Unknown
11:15 PM 64.4 °F - 55.4 °F 73% 30.12 in 10.0 mi SSE 4.6 mph - N/A   Unknown
11:35 PM 64.4 °F - 55.4 °F 73% 30.11 in 10.0 mi SSE 4.6 mph - N/A   Unknown
11:55 PM 64.4 °F - 55.4 °F 73% 30.10 in 10.0 mi SSE 4.6 mph - N/A   Unknown